Regional Weather Roundup
Issued by NWS

Home | Current Version | Previous Version | Text Only | Print | Product List | Glossary Off
Versions: 1 2 3 4 5 6 7 8 9 10 11 12 13 14 15 16 17 18 19 20 21 22 23 24 25 26 27 28 29 30 31 32 33 34 35 36 37 38 39 40 41 42 43 44 45 46 47 48 49 50

000
ASUS43 KLSX 231857
RWRMO

WEATHER SUMMARY FOR MISSOURI
NATIONAL WEATHER SERVICE SPRINGFIELD MO
100 PM CST TUE JAN 23 2018

NOTE: "FAIR" INDICATES FEW OR NO CLOUDS BELOW 12,000 FEET WITH NO
       SIGNIFICANT WEATHER AND/OR OBSTRUCTIONS TO VISIBILITY.
       CURRENT SKY AND/OR WEATHER CONDITIONS ARE NOT AVAILABLE FOR
       CHILLICOTHE AND FARMINGTON.

MOZ001>031-035>038-043-044-053-054-232000-
...NORTHERN AND WESTERN MISSOURI...

CITY           SKY/WX    TMP DP  RH WIND       PRES   REMARKS
KANSAS CTY INT CLOUDY    31  25  78 W12       30.19S WCI  22
LEE`S SUMMIT   PTSUNNY   32  27  81 W12       30.19S WCI  23
ST JOSEPH      CLOUDY    29  25  85 W13       30.21R WCI  19
CHILLICOTHE      N/A     33  24  69 W9        30.17R WCI  25

$$
MOZ066>068-077>081-088>096-101>105-232000-
...SOUTHWEST MISSOURI...

CITY           SKY/WX    TMP DP  RH WIND       PRES   REMARKS
SPRINGFIELD    CLOUDY    35  27  72 NW10      30.16F WCI  27
JOPLIN         PTSUNNY   38  29  70 W8        30.21F
BRANSON        MOSUNNY   37  27  65 NW8       30.17F

$$
MOZ032>034-039>042-045>050-055>058-069>072-232000-
...CENTRAL MISSOURI...

CITY           SKY/WX    TMP DP  RH WIND       PRES   REMARKS
COLUMBIA       NOT AVBL
JEFFERSON CITY CLOUDY    35  27  72 W16G24    30.15R WCI  25
ROLLA          CLOUDY    34  27  75 W17G28    30.11R WCI  23
SEDALIA        CLOUDY    34  29  82 W10       30.17R WCI  26
WARRENSBURG    CLOUDY    34  27  75 W13G20    30.19S WCI  25

$$
MOZ051-052-059>065-232000-
...EAST CENTRAL MISSOURI...

CITY           SKY/WX    TMP DP  RH WIND       PRES   REMARKS
ST LOUIS INTL  CLOUDY    36  27  69 W15G23    30.06S WCI  27

$$
MOZ072>076-082>087-097>100-106>115-232000-
...SOUTH CENTRAL AND SOUTHEAST MISSOURI...

CITY           SKY/WX    TMP DP  RH WIND       PRES   REMARKS
CAPE GIRARDEAU CLOUDY    40  29  64 NW16      30.09R
POPLAR BLUFF   CLOUDY    42  27  55 NW14G22   30.10F

$$


USA.gov is the U.S. government's official web portal to all federal, state and local government web resources and services.